Time,TemperatureF,DewpointF,PressureIn,WindDirection,WindDirectionDegrees,WindSpeedMPH,WindSpeedGustMPH,Humidity,HourlyPrecipIn,Conditions,Clouds,dailyrainin,SoftwareType,DateUTC
2013-11-23 00:02:00,48.0,29.8,30.06,ESE,118,0.0,1.0,49,0.00,,,0.00,VWS V14.01,2013-11-23 08:02:00,
2013-11-23 00:07:00,47.5,29.3,30.06,ESE,118,0.0,1.0,49,0.00,,,0.00,VWS V14.01,2013-11-23 08:07:00,
2013-11-23 00:12:00,47.0,29.8,30.06,ESE,118,0.0,1.0,51,0.00,,,0.00,VWS V14.01,2013-11-23 08:12:00,
2013-11-23 00:17:00,46.3,29.6,30.06,ESE,119,0.0,1.0,52,0.00,,,0.00,VWS V14.01,2013-11-23 08:17:00,
2013-11-23 00:22:00,45.7,29.6,30.06,ESE,119,0.0,1.0,53,0.00,,,0.00,VWS V14.01,2013-11-23 08:22:00,
2013-11-23 00:27:00,45.3,29.6,30.06,ESE,118,0.0,1.0,54,0.00,,,0.00,VWS V14.01,2013-11-23 08:27:00,
2013-11-23 00:32:00,44.9,29.7,30.06,ESE,119,0.0,1.0,55,0.00,,,0.00,VWS V14.01,2013-11-23 08:32:00,
2013-11-23 00:37:00,44.6,30.8,30.06,ESE,118,0.0,0.0,58,0.00,,,0.00,VWS V14.01,2013-11-23 08:37:00,
2013-11-23 00:42:00,44.4,30.1,30.06,East,84,0.0,1.0,57,0.00,,,0.00,VWS V14.01,2013-11-23 08:42:00,
2013-11-23 00:47:00,44.4,30.6,30.06,East,85,0.0,1.0,58,0.00,,,0.00,VWS V14.01,2013-11-23 08:47:00,
2013-11-23 00:52:00,44.0,30.6,30.06,East,85,0.0,1.0,59,0.00,,,0.00,VWS V14.01,2013-11-23 08:52:00,
2013-11-23 00:57:00,43.9,30.5,30.06,East,84,0.0,1.0,59,0.00,,,0.00,VWS V14.01,2013-11-23 08:57:00,
2013-11-23 01:02:00,43.7,31.1,30.07,East,85,0.0,1.0,61,0.00,,,0.00,VWS V14.01,2013-11-23 09:02:00,
2013-11-23 01:07:00,43.3,31.2,30.07,East,85,0.0,0.0,62,0.00,,,0.00,VWS V14.01,2013-11-23 09:07:00,
2013-11-23 01:12:00,43.1,31.4,30.07,East,85,0.0,0.0,63,0.00,,,0.00,VWS V14.01,2013-11-23 09:12:00,
2013-11-23 01:17:00,43.1,31.0,30.07,East,82,1.0,1.0,62,0.00,,,0.00,VWS V14.01,2013-11-23 09:17:00,
2013-11-23 01:22:00,43.1,31.0,30.07,East,82,0.0,1.0,62,0.00,,,0.00,VWS V14.01,2013-11-23 09:22:00,
2013-11-23 01:27:00,43.2,31.5,30.07,WNW,287,0.0,1.0,63,0.00,,,0.00,VWS V14.01,2013-11-23 09:27:00,
2013-11-23 01:32:00,43.0,31.7,30.07,WNW,286,0.0,1.0,64,0.00,,,0.00,VWS V14.01,2013-11-23 09:32:00,
2013-11-23 01:37:00,43.3,32.0,30.07,WNW,287,0.0,1.0,64,0.00,,,0.00,VWS V14.01,2013-11-23 09:37:00,
2013-11-23 01:42:00,43.4,32.4,30.08,NNW,348,0.0,1.0,65,0.00,,,0.00,VWS V14.01,2013-11-23 09:42:00,
2013-11-23 01:47:00,43.4,32.4,30.08,North,358,0.0,1.0,65,0.00,,,0.00,VWS V14.01,2013-11-23 09:47:00,
2013-11-23 01:52:00,43.4,32.8,30.08,North,360,0.0,1.0,66,0.00,,,0.00,VWS V14.01,2013-11-23 09:52:00,
2013-11-23 01:57:00,43.2,32.6,30.08,North,360,0.0,1.0,66,0.00,,,0.00,VWS V14.01,2013-11-23 09:57:00,
2013-11-23 02:02:00,42.9,32.3,30.09,NNE,27,0.0,1.0,66,0.00,,,0.00,VWS V14.01,2013-11-23 10:02:00,
2013-11-23 02:06:00,42.5,32.3,30.09,NNE,27,0.0,0.0,67,0.00,,,0.00,VWS V14.01,2013-11-23 10:06:00,
2013-11-23 02:11:00,42.3,32.5,30.09,NNE,27,0.0,0.0,68,0.00,,,0.00,VWS V14.01,2013-11-23 10:11:00,
2013-11-23 02:16:00,42.4,32.6,30.09,NNE,27,0.0,0.0,68,0.00,,,0.00,VWS V14.01,2013-11-23 10:16:00,
2013-11-23 02:21:00,42.3,32.1,30.09,NNE,27,0.0,0.0,67,0.00,,,0.00,VWS V14.01,2013-11-23 10:21:00,
2013-11-23 02:26:00,42.5,32.7,30.09,NNE,27,0.0,1.0,68,0.00,,,0.00,VWS V14.01,2013-11-23 10:26:00,
2013-11-23 02:31:00,42.4,32.6,30.08,NNE,27,0.0,1.0,68,0.00,,,0.00,VWS V14.01,2013-11-23 10:31:00,
2013-11-23 02:36:00,42.2,32.4,30.08,NE,47,1.0,2.0,68,0.00,,,0.00,VWS V14.01,2013-11-23 10:36:00,
2013-11-23 02:41:00,42.5,32.3,30.09,ENE,77,0.0,4.0,67,0.00,,,0.00,VWS V14.01,2013-11-23 10:41:00,
2013-11-23 02:46:00,42.5,32.3,30.09,NE,56,0.0,4.0,67,0.00,,,0.00,VWS V14.01,2013-11-23 10:46:00,
2013-11-23 02:51:00,42.3,32.5,30.09,NE,56,0.0,4.0,68,0.00,,,0.00,VWS V14.01,2013-11-23 10:51:00,
2013-11-23 02:56:00,42.4,32.6,30.09,NE,51,0.0,4.0,68,0.00,,,0.00,VWS V14.01,2013-11-23 10:56:00,
2013-11-23 03:01:00,42.4,32.6,30.09,NE,51,0.0,4.0,68,0.00,,,0.00,VWS V14.01,2013-11-23 11:01:00,
2013-11-23 03:06:00,42.5,32.7,30.09,ENE,63,0.0,2.0,68,0.00,,,0.00,VWS V14.01,2013-11-23 11:06:00,
2013-11-23 03:11:00,42.4,32.6,30.09,ENE,64,0.0,2.0,68,0.00,,,0.00,VWS V14.01,2013-11-23 11:11:00,
2013-11-23 03:16:00,42.2,32.8,30.09,ENE,64,0.0,2.0,69,0.00,,,0.00,VWS V14.01,2013-11-23 11:16:00,
2013-11-23 03:21:00,42.2,32.8,30.09,ENE,64,0.0,2.0,69,0.00,,,0.00,VWS V14.01,2013-11-23 11:21:00,
2013-11-23 03:26:00,42.1,32.7,30.09,ENE,64,0.0,2.0,69,0.00,,,0.00,VWS V14.01,2013-11-23 11:26:00,
2013-11-23 03:31:00,42.0,32.6,30.09,East,81,0.0,2.0,69,0.00,,,0.00,VWS V14.01,2013-11-23 11:31:00,
2013-11-23 03:36:00,42.0,32.6,30.09,NNE,26,0.0,2.0,69,0.00,,,0.00,VWS V14.01,2013-11-23 11:36:00,
2013-11-23 03:41:00,42.1,32.7,30.09,NE,40,0.0,2.0,69,0.00,,,0.00,VWS V14.01,2013-11-23 11:41:00,
2013-11-23 03:46:00,42.0,32.6,30.09,NE,39,1.0,2.0,69,0.00,,,0.00,VWS V14.01,2013-11-23 11:46:00,
2013-11-23 03:51:00,41.9,32.5,30.09,NE,41,0.0,2.0,69,0.00,,,0.00,VWS V14.01,2013-11-23 11:51:00,
2013-11-23 03:56:00,41.9,32.5,30.09,NE,46,0.0,2.0,69,0.00,,,0.00,VWS V14.01,2013-11-23 11:56:00,
2013-11-23 04:01:00,41.8,32.8,30.09,NE,39,0.0,2.0,70,0.00,,,0.00,VWS V14.01,2013-11-23 12:01:00,
2013-11-23 04:06:00,41.8,32.8,30.09,NE,34,0.0,1.0,70,0.00,,,0.00,VWS V14.01,2013-11-23 12:06:00,
2013-11-23 04:11:00,41.6,32.6,30.09,NE,34,0.0,1.0,70,0.00,,,0.00,VWS V14.01,2013-11-23 12:11:00,
2013-11-23 04:16:00,41.3,32.6,30.09,NE,34,0.0,1.0,71,0.00,,,0.00,VWS V14.01,2013-11-23 12:16:00,
2013-11-23 04:21:00,41.1,32.4,30.09,NE,34,0.0,1.0,71,0.00,,,0.00,VWS V14.01,2013-11-23 12:21:00,
2013-11-23 04:26:00,40.9,32.6,30.09,NE,34,0.0,1.0,72,0.00,,,0.00,VWS V14.01,2013-11-23 12:26:00,
2013-11-23 04:31:00,40.8,32.5,30.09,NE,34,0.0,1.0,72,0.00,,,0.00,VWS V14.01,2013-11-23 12:31:00,
2013-11-23 04:36:00,40.8,32.8,30.09,NE,34,0.0,0.0,73,0.00,,,0.00,VWS V14.01,2013-11-23 12:36:00,
2013-11-23 04:41:00,40.7,32.7,30.09,NE,34,0.0,1.0,73,0.00,,,0.00,VWS V14.01,2013-11-23 12:41:00,
2013-11-23 04:46:00,40.4,32.4,30.09,NE,34,0.0,1.0,73,0.00,,,0.00,VWS V14.01,2013-11-23 12:46:00,
2013-11-23 04:51:00,40.2,32.6,30.09,NE,34,0.0,1.0,74,0.00,,,0.00,VWS V14.01,2013-11-23 12:51:00,
2013-11-23 04:56:00,39.9,32.6,30.10,NE,34,0.0,1.0,75,0.00,,,0.00,VWS V14.01,2013-11-23 12:56:00,
2013-11-23 05:01:00,39.8,32.5,30.10,NE,34,0.0,1.0,75,0.00,,,0.00,VWS V14.01,2013-11-23 13:01:00,
2013-11-23 05:06:00,39.9,32.6,30.10,NE,36,1.0,1.0,75,0.00,,,0.00,VWS V14.01,2013-11-23 13:06:00,
2013-11-23 05:11:00,40.1,32.5,30.10,NE,35,0.0,1.0,74,0.00,,,0.00,VWS V14.01,2013-11-23 13:11:00,
2013-11-23 05:16:00,40.1,32.8,30.10,NE,36,0.0,1.0,75,0.00,,,0.00,VWS V14.01,2013-11-23 13:16:00,
2013-11-23 05:21:00,40.1,32.8,30.10,NE,36,0.0,1.0,75,0.00,,,0.00,VWS V14.01,2013-11-23 13:21:00,
2013-11-23 05:26:00,40.2,32.9,30.10,NE,36,0.0,1.0,75,0.00,,,0.00,VWS V14.01,2013-11-23 13:26:00,
2013-11-23 05:31:00,40.0,32.7,30.10,NE,36,0.0,1.0,75,0.00,,,0.00,VWS V14.01,2013-11-23 13:31:00,
2013-11-23 05:36:00,40.1,32.8,30.10,NE,35,0.0,0.0,75,0.00,,,0.00,VWS V14.01,2013-11-23 13:36:00,
2013-11-23 05:41:00,40.0,32.7,30.10,NE,36,0.0,1.0,75,0.00,,,0.00,VWS V14.01,2013-11-23 13:41:00,
2013-11-23 05:46:00,39.9,32.6,30.10,NE,35,0.0,2.0,75,0.00,,,0.00,VWS V14.01,2013-11-23 13:46:00,
2013-11-23 05:51:00,39.7,32.4,30.11,NE,35,0.0,2.0,75,0.00,,,0.00,VWS V14.01,2013-11-23 13:51:00,
2013-11-23 05:56:00,39.5,32.6,30.11,NE,35,0.0,2.0,76,0.00,,,0.00,VWS V14.01,2013-11-23 13:56:00,
2013-11-23 06:01:00,39.5,32.2,30.11,NE,36,0.0,2.0,75,0.00,,,0.00,VWS V14.01,2013-11-23 14:01:00,
2013-11-23 06:06:00,39.5,32.6,30.11,NE,35,0.0,1.0,76,0.00,,,0.00,VWS V14.01,2013-11-23 14:06:00,
2013-11-23 06:11:00,39.5,32.6,30.11,NE,35,0.0,1.0,76,0.00,,,0.00,VWS V14.01,2013-11-23 14:11:00,
2013-11-23 06:16:00,39.4,32.5,30.11,NE,35,0.0,1.0,76,0.00,,,0.00,VWS V14.01,2013-11-23 14:16:00,
2013-11-23 06:21:00,39.6,33.0,30.11,ENE,57,0.0,1.0,77,0.00,,,0.00,VWS V14.01,2013-11-23 14:21:00,
2013-11-23 06:26:00,39.5,32.6,30.11,ENE,57,0.0,1.0,76,0.00,,,0.00,VWS V14.01,2013-11-23 14:26:00,
2013-11-23 06:31:00,39.4,32.8,30.12,ENE,57,0.0,1.0,77,0.00,,,0.00,VWS V14.01,2013-11-23 14:31:00,
2013-11-23 06:36:00,39.6,33.0,30.12,NNE,16,0.0,1.0,77,0.00,,,0.00,VWS V14.01,2013-11-23 14:36:00,
2013-11-23 06:41:00,40.0,33.1,30.12,North,356,0.0,2.0,76,0.00,,,0.00,VWS V14.01,2013-11-23 14:41:00,
2013-11-23 06:46:00,40.5,32.9,30.12,NNW,347,0.0,2.0,74,0.00,,,0.00,VWS V14.01,2013-11-23 14:46:00,
2013-11-23 06:51:00,40.8,32.8,30.12,NNE,15,0.0,2.0,73,0.00,,,0.00,VWS V14.01,2013-11-23 14:51:00,
2013-11-23 06:56:00,41.3,33.0,30.12,NNE,20,0.0,2.0,72,0.00,,,0.00,VWS V14.01,2013-11-23 14:56:00,
2013-11-23 07:01:00,41.5,32.8,30.12,NNW,345,1.0,2.0,71,0.00,,,0.00,VWS V14.01,2013-11-23 15:01:00,
2013-11-23 07:06:00,41.6,32.6,30.12,NE,34,0.0,1.0,70,0.00,,,0.00,VWS V14.01,2013-11-23 15:06:00,
2013-11-23 07:11:00,41.7,32.3,30.12,North,360,0.0,1.0,69,0.00,,,0.00,VWS V14.01,2013-11-23 15:11:00,
2013-11-23 07:16:00,41.9,32.5,30.12,NNE,22,0.0,1.0,69,0.00,,,0.00,VWS V14.01,2013-11-23 15:16:00,
2013-11-23 07:21:00,41.9,32.1,30.13,North,350,1.0,1.0,68,0.00,,,0.00,VWS V14.01,2013-11-23 15:21:00,
2013-11-23 07:26:00,42.2,32.4,30.13,NNE,25,1.0,1.0,68,0.00,,,0.00,VWS V14.01,2013-11-23 15:26:00,
2013-11-23 07:31:00,42.3,32.5,30.13,NNE,26,0.0,1.0,68,0.00,,,0.00,VWS V14.01,2013-11-23 15:31:00,
2013-11-23 07:36:00,42.2,32.4,30.13,NNE,25,0.0,0.0,68,0.00,,,0.00,VWS V14.01,2013-11-23 15:36:00,
2013-11-23 07:41:00,42.4,32.6,30.13,NE,34,0.0,2.0,68,0.00,,,0.00,VWS V14.01,2013-11-23 15:41:00,
2013-11-23 07:46:00,42.6,32.8,30.13,ENE,68,0.0,2.0,68,0.00,,,0.00,VWS V14.01,2013-11-23 15:46:00,
2013-11-23 07:51:00,43.1,33.3,30.13,NE,35,0.0,2.0,68,0.00,,,0.00,VWS V14.01,2013-11-23 15:51:00,
2013-11-23 07:56:00,43.4,33.2,30.13,ENE,72,1.0,3.0,67,0.00,,,0.00,VWS V14.01,2013-11-23 15:56:00,
2013-11-23 08:01:00,43.7,33.1,30.13,ENE,60,0.0,3.0,66,0.00,,,0.00,VWS V14.01,2013-11-23 16:01:00,
2013-11-23 08:06:00,43.8,33.6,30.13,ENE,60,0.0,0.0,67,0.00,,,0.00,VWS V14.01,2013-11-23 16:06:00,
2013-11-23 08:11:00,44.1,33.5,30.13,ENE,68,0.0,2.0,66,0.00,,,0.00,VWS V14.01,2013-11-23 16:11:00,
2013-11-23 08:16:00,44.3,33.7,30.13,ENE,68,0.0,2.0,66,0.00,,,0.00,VWS V14.01,2013-11-23 16:16:00,
2013-11-23 08:21:00,44.8,34.2,30.14,ENE,69,0.0,2.0,66,0.00,,,0.00,VWS V14.01,2013-11-23 16:21:00,
2013-11-23 08:26:00,45.5,34.4,30.13,ENE,75,1.0,2.0,65,0.00,,,0.00,VWS V14.01,2013-11-23 16:26:00,
2013-11-23 08:31:00,46.1,34.6,30.13,East,86,0.0,2.0,64,0.00,,,0.00,VWS V14.01,2013-11-23 16:31:00,
2013-11-23 08:36:00,46.5,35.0,30.13,East,86,0.0,0.0,64,0.00,,,0.00,VWS V14.01,2013-11-23 16:36:00,
2013-11-23 08:41:00,46.9,35.0,30.13,East,86,0.0,0.0,63,0.00,,,0.00,VWS V14.01,2013-11-23 16:41:00,
2013-11-23 08:46:00,47.9,35.5,30.14,East,86,0.0,0.0,62,0.00,,,0.00,VWS V14.01,2013-11-23 16:46:00,
2013-11-23 08:51:00,50.1,36.3,30.14,East,86,0.0,1.0,59,0.00,,,0.00,VWS V14.01,2013-11-23 16:51:00,
2013-11-23 08:56:00,51.3,36.2,30.14,ENE,58,0.0,1.0,56,0.00,,,0.00,VWS V14.01,2013-11-23 16:56:00,
2013-11-23 09:01:00,53.0,36.8,30.14,ENE,60,0.0,1.0,54,0.00,,,0.00,VWS V14.01,2013-11-23 17:01:00,
2013-11-23 09:06:00,54.1,35.9,30.14,ENE,74,1.0,2.0,50,0.00,,,0.00,VWS V14.01,2013-11-23 17:06:00,
2013-11-23 09:11:00,55.0,35.2,30.14,East,85,0.0,3.0,47,0.00,,,0.00,VWS V14.01,2013-11-23 17:11:00,
2013-11-23 09:16:00,55.6,35.7,30.14,NNW,335,0.0,3.0,47,0.00,,,0.00,VWS V14.01,2013-11-23 17:16:00,
2013-11-23 09:21:00,55.7,35.8,30.14,NW,311,0.0,3.0,47,0.00,,,0.00,VWS V14.01,2013-11-23 17:21:00,
2013-11-23 09:26:00,56.1,35.6,30.14,West,261,1.0,3.0,46,0.00,,,0.00,VWS V14.01,2013-11-23 17:26:00,
2013-11-23 09:31:00,56.4,35.3,30.14,SW,226,1.0,3.0,45,0.00,,,0.00,VWS V14.01,2013-11-23 17:31:00,
2013-11-23 09:36:00,56.5,34.9,30.14,SW,226,3.0,3.0,44,0.00,,,0.00,VWS V14.01,2013-11-23 17:36:00,
2013-11-23 09:41:00,56.7,35.0,30.14,WSW,239,1.0,3.0,44,0.00,,,0.00,VWS V14.01,2013-11-23 17:41:00,
2013-11-23 09:46:00,57.2,35.5,30.14,WSW,248,2.0,3.0,44,0.00,,,0.00,VWS V14.01,2013-11-23 17:46:00,
2013-11-23 09:51:00,57.2,34.3,30.14,SSW,208,0.0,3.0,42,0.00,,,0.00,VWS V14.01,2013-11-23 17:51:00,
2013-11-23 09:56:00,58.4,35.4,30.14,SE,139,1.0,3.0,42,0.00,,,0.00,VWS V14.01,2013-11-23 17:56:00,
2013-11-23 10:01:00,58.9,35.9,30.14,South,177,3.0,4.0,42,0.00,,,0.00,VWS V14.01,2013-11-23 18:01:00,
2013-11-23 10:06:00,59.0,36.6,30.14,SW,227,0.0,4.0,43,0.00,,,0.00,VWS V14.01,2013-11-23 18:06:00,
2013-11-23 10:11:00,59.1,36.0,30.14,NW,304,1.0,4.0,42,0.00,,,0.00,VWS V14.01,2013-11-23 18:11:00,
2013-11-23 10:16:00,58.7,35.7,30.14,WSW,258,3.0,4.0,42,0.00,,,0.00,VWS V14.01,2013-11-23 18:16:00,
2013-11-23 10:21:00,58.6,36.8,30.14,West,277,2.0,5.0,44,0.00,,,0.00,VWS V14.01,2013-11-23 18:21:00,
2013-11-23 10:26:00,58.9,35.9,30.14,WSW,242,1.0,5.0,42,0.00,,,0.00,VWS V14.01,2013-11-23 18:26:00,
2013-11-23 10:30:00,58.9,36.5,30.14,WNW,283,0.0,5.0,43,0.00,,,0.00,VWS V14.01,2013-11-23 18:30:00,
2013-11-23 10:35:00,59.2,36.7,30.14,WNW,285,3.0,4.0,43,0.00,,,0.00,VWS V14.01,2013-11-23 18:35:00,
2013-11-23 10:40:00,59.3,36.8,30.14,West,269,0.0,4.0,43,0.00,,,0.00,VWS V14.01,2013-11-23 18:40:00,
2013-11-23 10:45:00,59.7,35.4,30.14,West,262,1.0,4.0,40,0.00,,,0.00,VWS V14.01,2013-11-23 18:45:00,
2013-11-23 10:50:00,60.1,36.3,30.14,NE,52,2.0,4.0,41,0.00,,,0.00,VWS V14.01,2013-11-23 18:50:00,
2013-11-23 10:55:00,60.2,37.0,30.13,NE,42,2.0,6.0,42,0.00,,,0.00,VWS V14.01,2013-11-23 18:55:00,
2013-11-23 11:00:00,59.9,37.4,30.13,North,358,3.0,6.0,43,0.00,,,0.00,VWS V14.01,2013-11-23 19:00:00,
2013-11-23 11:05:00,59.9,38.0,30.13,NNE,26,0.0,4.0,44,0.00,,,0.00,VWS V14.01,2013-11-23 19:05:00,
2013-11-23 11:11:00,60.0,38.0,30.13,ENE,58,3.0,5.0,44,0.00,,,0.00,VWS V14.01,2013-11-23 19:11:00,
2013-11-23 11:16:00,59.7,36.6,30.12,WNW,298,0.0,5.0,42,0.00,,,0.00,VWS V14.01,2013-11-23 19:16:00,
2013-11-23 11:21:00,60.2,35.8,30.12,NNW,328,3.0,5.0,40,0.00,,,0.00,VWS V14.01,2013-11-23 19:21:00,
2013-11-23 11:26:00,60.7,34.3,30.12,SE,124,1.0,5.0,37,0.00,,,0.00,VWS V14.01,2013-11-23 19:26:00,
2013-11-23 11:31:00,61.6,35.8,30.11,WNW,284,2.0,5.0,38,0.00,,,0.00,VWS V14.01,2013-11-23 19:31:00,
2013-11-23 11:36:00,61.7,35.2,30.11,ENE,72,2.0,5.0,37,0.00,,,0.00,VWS V14.01,2013-11-23 19:36:00,
2013-11-23 11:41:00,61.7,37.8,30.11,ENE,65,2.0,5.0,41,0.00,,,0.00,VWS V14.01,2013-11-23 19:41:00,
2013-11-23 11:46:00,61.3,38.0,30.11,NW,319,3.0,8.0,42,0.00,,,0.00,VWS V14.01,2013-11-23 19:46:00,
2013-11-23 11:51:00,61.0,39.0,30.11,NNW,333,3.0,8.0,44,0.00,,,0.00,VWS V14.01,2013-11-23 19:51:00,
2013-11-23 11:56:00,60.8,39.3,30.11,NW,318,3.0,8.0,45,0.00,,,0.00,VWS V14.01,2013-11-23 19:56:00,
2013-11-23 12:01:00,60.1,39.3,30.11,NW,311,2.0,8.0,46,0.00,,,0.00,VWS V14.01,2013-11-23 20:01:00,
2013-11-23 12:06:00,60.3,40.0,30.11,East,84,3.0,5.0,47,0.00,,,0.00,VWS V14.01,2013-11-23 20:06:00,
2013-11-23 12:11:00,60.4,39.5,30.10,NW,326,4.0,6.0,46,0.00,,,0.00,VWS V14.01,2013-11-23 20:11:00,
2013-11-23 12:16:00,60.5,39.6,30.10,NNW,344,1.0,6.0,46,0.00,,,0.00,VWS V14.01,2013-11-23 20:16:00,
2013-11-23 12:21:00,60.6,39.2,30.10,NNE,15,2.0,6.0,45,0.00,,,0.00,VWS V14.01,2013-11-23 20:21:00,
2013-11-23 12:26:00,60.5,39.6,30.10,NW,320,4.0,8.0,46,0.00,,,0.00,VWS V14.01,2013-11-23 20:26:00,
2013-11-23 12:31:00,60.6,39.2,30.10,NW,314,5.0,8.0,45,0.00,,,0.00,VWS V14.01,2013-11-23 20:31:00,
2013-11-23 12:36:00,60.5,39.1,30.10,NNW,328,3.0,8.0,45,0.00,,,0.00,VWS V14.01,2013-11-23 20:36:00,
2013-11-23 12:41:00,60.5,39.1,30.10,NW,313,6.0,8.0,45,0.00,,,0.00,VWS V14.01,2013-11-23 20:41:00,
2013-11-23 12:46:00,60.6,38.0,30.09,NNE,15,4.0,8.0,43,0.00,,,0.00,VWS V14.01,2013-11-23 20:46:00,
2013-11-23 12:51:00,61.1,39.0,30.09,NNW,340,1.0,8.0,44,0.00,,,0.00,VWS V14.01,2013-11-23 20:51:00,
2013-11-23 12:56:00,61.4,34.2,30.09,NE,37,5.0,8.0,36,0.00,,,0.00,VWS V14.01,2013-11-23 20:56:00,
2013-11-23 13:00:00,61.6,35.8,30.09,NE,50,2.0,8.0,38,0.00,,,0.00,VWS V14.01,2013-11-23 21:00:00,
2013-11-23 13:05:00,62.0,35.5,30.09,ESE,109,0.0,3.0,37,0.00,,,0.00,VWS V14.01,2013-11-23 21:05:00,
2013-11-23 13:10:00,62.6,35.3,30.08,NW,323,2.0,6.0,36,0.00,,,0.00,VWS V14.01,2013-11-23 21:10:00,
2013-11-23 13:15:00,62.7,34.7,30.08,West,263,1.0,6.0,35,0.00,,,0.00,VWS V14.01,2013-11-23 21:15:00,
2013-11-23 13:20:00,63.2,35.1,30.08,NW,316,2.0,6.0,35,0.00,,,0.00,VWS V14.01,2013-11-23 21:20:00,
2013-11-23 13:25:00,63.4,34.6,30.08,WNW,290,5.0,6.0,34,0.00,,,0.00,VWS V14.01,2013-11-23 21:25:00,
2013-11-23 13:30:00,63.5,32.3,30.08,NW,316,4.0,6.0,31,0.00,,,0.00,VWS V14.01,2013-11-23 21:30:00,
2013-11-23 13:35:00,63.5,34.7,30.08,NNE,27,0.0,4.0,34,0.00,,,0.00,VWS V14.01,2013-11-23 21:35:00,
2013-11-23 13:40:00,63.8,34.2,30.08,WNW,299,1.0,4.0,33,0.00,,,0.00,VWS V14.01,2013-11-23 21:40:00,
2013-11-23 13:45:00,64.0,33.6,30.08,NNW,330,1.0,4.0,32,0.00,,,0.00,VWS V14.01,2013-11-23 21:45:00,
2013-11-23 13:50:00,63.8,31.0,30.08,SE,129,1.0,5.0,29,0.00,,,0.00,VWS V14.01,2013-11-23 21:50:00,
2013-11-23 13:55:00,64.0,31.1,30.08,NE,43,4.0,7.0,29,0.00,,,0.00,VWS V14.01,2013-11-23 21:55:00,
2013-11-23 14:00:00,64.3,33.0,30.08,North,357,1.0,7.0,31,0.00,,,0.00,VWS V14.01,2013-11-23 22:00:00,
2013-11-23 14:05:00,64.5,32.4,30.08,East,101,1.0,4.0,30,0.00,,,0.00,VWS V14.01,2013-11-23 22:05:00,
2013-11-23 14:10:00,64.7,29.0,30.07,North,349,1.0,4.0,26,0.00,,,0.00,VWS V14.01,2013-11-23 22:10:00,
2013-11-23 14:15:00,64.6,30.8,30.07,NNE,31,1.0,5.0,28,0.00,,,0.00,VWS V14.01,2013-11-23 22:15:00,
2013-11-23 14:20:00,64.8,32.7,30.08,ESE,118,2.0,5.0,30,0.00,,,0.00,VWS V14.01,2013-11-23 22:20:00,
2013-11-23 14:25:00,65.0,32.8,30.07,ENE,57,2.0,5.0,30,0.00,,,0.00,VWS V14.01,2013-11-23 22:25:00,
2013-11-23 14:30:00,64.9,31.9,30.07,East,101,2.0,5.0,29,0.00,,,0.00,VWS V14.01,2013-11-23 22:30:00,
2013-11-23 14:35:00,65.1,32.1,30.07,East,84,2.0,2.0,29,0.00,,,0.00,VWS V14.01,2013-11-23 22:35:00,
2013-11-23 14:40:00,65.4,34.0,30.07,East,99,0.0,2.0,31,0.00,,,0.00,VWS V14.01,2013-11-23 22:40:00,
2013-11-23 14:45:00,65.5,32.4,30.08,NW,320,1.0,2.0,29,0.00,,,0.00,VWS V14.01,2013-11-23 22:45:00,
2013-11-23 14:50:00,65.6,30.8,30.08,ESE,120,1.0,2.0,27,0.00,,,0.00,VWS V14.01,2013-11-23 22:50:00,
2013-11-23 14:55:00,65.6,34.2,30.08,East,101,1.0,2.0,31,0.00,,,0.00,VWS V14.01,2013-11-23 22:55:00,
2013-11-23 15:00:00,65.1,32.1,30.08,North,349,2.0,4.0,29,0.00,,,0.00,VWS V14.01,2013-11-23 23:00:00,
2013-11-23 15:05:00,64.8,31.8,30.08,NW,315,1.0,2.0,29,0.00,,,0.00,VWS V14.01,2013-11-23 23:05:00,
2013-11-23 15:09:00,64.8,31.8,30.08,WNW,292,0.0,2.0,29,0.00,,,0.00,VWS V14.01,2013-11-23 23:09:00,
2013-11-23 15:14:00,64.4,37.6,30.07,NW,315,1.0,5.0,37,0.00,,,0.00,VWS V14.01,2013-11-23 23:14:00,
2013-11-23 15:19:00,63.8,37.7,30.08,ESE,114,0.0,5.0,38,0.00,,,0.00,VWS V14.01,2013-11-23 23:19:00,
2013-11-23 15:24:00,63.5,36.1,30.08,NNE,12,1.0,5.0,36,0.00,,,0.00,VWS V14.01,2013-11-23 23:24:00,
2013-11-23 15:29:00,63.4,36.0,30.08,NW,324,1.0,5.0,36,0.00,,,0.00,VWS V14.01,2013-11-23 23:29:00,
2013-11-23 15:34:00,63.3,36.6,30.08,North,354,2.0,2.0,37,0.00,,,0.00,VWS V14.01,2013-11-23 23:34:00,
2013-11-23 15:39:00,63.0,36.3,30.08,NW,319,2.0,5.0,37,0.00,,,0.00,VWS V14.01,2013-11-23 23:39:00,
2013-11-23 15:44:00,62.4,36.5,30.08,WNW,297,1.0,5.0,38,0.00,,,0.00,VWS V14.01,2013-11-23 23:44:00,
2013-11-23 15:49:00,62.3,36.4,30.08,NW,304,1.0,5.0,38,0.00,,,0.00,VWS V14.01,2013-11-23 23:49:00,
2013-11-23 15:54:00,62.2,36.3,30.08,NW,318,1.0,5.0,38,0.00,,,0.00,VWS V14.01,2013-11-23 23:54:00,
2013-11-23 15:59:00,62.1,35.5,30.08,NNW,332,1.0,5.0,37,0.00,,,0.00,VWS V14.01,2013-11-23 23:59:00,
2013-11-23 16:04:00,61.8,36.0,30.08,NW,305,1.0,1.0,38,0.00,,,0.00,VWS V14.01,2013-11-24 00:04:00,
2013-11-23 16:09:00,61.6,36.4,30.08,NW,305,0.0,1.0,39,0.00,,,0.00,VWS V14.01,2013-11-24 00:09:00,
2013-11-23 16:14:00,60.9,36.4,30.09,NNE,23,0.0,1.0,40,0.00,,,0.00,VWS V14.01,2013-11-24 00:14:00,
2013-11-23 16:19:00,60.5,38.5,30.09,East,82,1.0,2.0,44,0.00,,,0.00,VWS V14.01,2013-11-24 00:19:00,
2013-11-23 16:24:00,60.2,38.8,30.09,ENE,68,0.0,2.0,45,0.00,,,0.00,VWS V14.01,2013-11-24 00:24:00,
2013-11-23 16:29:00,59.9,39.1,30.09,SW,226,1.0,2.0,46,0.00,,,0.00,VWS V14.01,2013-11-24 00:29:00,
2013-11-23 16:34:00,59.3,40.2,30.09,WSW,249,3.0,3.0,49,0.00,,,0.00,VWS V14.01,2013-11-24 00:34:00,
2013-11-23 16:39:00,58.6,41.5,30.10,WSW,248,1.0,3.0,53,0.00,,,0.00,VWS V14.01,2013-11-24 00:39:00,
2013-11-23 16:44:00,58.1,41.6,30.10,SSW,193,1.0,3.0,54,0.00,,,0.00,VWS V14.01,2013-11-24 00:44:00,
2013-11-23 16:49:00,57.5,41.5,30.09,SSW,208,0.0,3.0,55,0.00,,,0.00,VWS V14.01,2013-11-24 00:49:00,
2013-11-23 16:54:00,56.9,41.8,30.10,SSW,208,0.0,3.0,57,0.00,,,0.00,VWS V14.01,2013-11-24 00:54:00,
2013-11-23 16:59:00,56.1,42.0,30.10,SSW,208,0.0,3.0,59,0.00,,,0.00,VWS V14.01,2013-11-24 00:59:00,
2013-11-23 17:03:00,55.3,42.1,30.10,SSW,208,0.0,0.0,61,0.00,,,0.00,VWS V14.01,2013-11-24 01:03:00,
2013-11-23 17:08:00,54.5,41.8,30.10,SSW,208,0.0,0.0,62,0.00,,,0.00,VWS V14.01,2013-11-24 01:08:00,
2013-11-23 17:13:00,53.8,41.9,30.10,SSW,208,0.0,0.0,64,0.00,,,0.00,VWS V14.01,2013-11-24 01:13:00,
2013-11-23 17:18:00,53.4,41.5,30.10,SSW,208,0.0,0.0,64,0.00,,,0.00,VWS V14.01,2013-11-24 01:18:00,
2013-11-23 17:23:00,53.0,42.0,30.10,SSW,208,0.0,0.0,66,0.00,,,0.00,VWS V14.01,2013-11-24 01:23:00,
2013-11-23 17:28:00,52.6,40.8,30.10,North,353,0.0,1.0,64,0.00,,,0.00,VWS V14.01,2013-11-24 01:28:00,
2013-11-23 17:33:00,52.2,39.6,30.10,NE,41,0.0,0.0,62,0.00,,,0.00,VWS V14.01,2013-11-24 01:33:00,
2013-11-23 17:38:00,51.9,38.5,30.10,NNE,32,0.0,1.0,60,0.00,,,0.00,VWS V14.01,2013-11-24 01:38:00,
2013-11-23 17:43:00,51.4,37.6,30.10,NE,34,0.0,1.0,59,0.00,,,0.00,VWS V14.01,2013-11-24 01:43:00,
2013-11-23 17:48:00,51.2,37.0,30.10,NE,37,0.0,1.0,58,0.00,,,0.00,VWS V14.01,2013-11-24 01:48:00,
2013-11-23 17:53:00,51.0,36.8,30.11,ESE,117,1.0,1.0,58,0.00,,,0.00,VWS V14.01,2013-11-24 01:53:00,
2013-11-23 17:58:00,50.8,35.7,30.11,East,97,0.0,2.0,56,0.00,,,0.00,VWS V14.01,2013-11-24 01:58:00,
2013-11-23 18:03:00,50.6,35.5,30.11,East,86,0.0,0.0,56,0.00,,,0.00,VWS V14.01,2013-11-24 02:03:00,
2013-11-23 18:08:00,50.2,35.1,30.11,East,86,0.0,1.0,56,0.00,,,0.00,VWS V14.01,2013-11-24 02:08:00,
2013-11-23 18:13:00,49.9,35.3,30.11,North,360,0.0,1.0,57,0.00,,,0.00,VWS V14.01,2013-11-24 02:13:00,
2013-11-23 18:18:00,49.3,34.7,30.12,North,359,0.0,1.0,57,0.00,,,0.00,VWS V14.01,2013-11-24 02:18:00,
2013-11-23 18:23:00,48.8,34.7,30.12,NE,49,1.0,1.0,58,0.00,,,0.00,VWS V14.01,2013-11-24 02:23:00,
2013-11-23 18:28:00,48.9,34.8,30.12,ENE,62,0.0,1.0,58,0.00,,,0.00,VWS V14.01,2013-11-24 02:28:00,
2013-11-23 18:33:00,48.7,34.6,30.12,ENE,62,0.0,0.0,58,0.00,,,0.00,VWS V14.01,2013-11-24 02:33:00,
2013-11-23 18:38:00,48.1,35.3,30.12,ENE,62,0.0,0.0,61,0.00,,,0.00,VWS V14.01,2013-11-24 02:38:00,
2013-11-23 18:43:00,47.8,35.0,30.13,ENE,63,0.0,1.0,61,0.00,,,0.00,VWS V14.01,2013-11-24 02:43:00,
2013-11-23 18:48:00,47.8,35.0,30.13,ENE,62,0.0,1.0,61,0.00,,,0.00,VWS V14.01,2013-11-24 02:48:00,
2013-11-23 18:53:00,47.6,35.2,30.13,ENE,62,0.0,1.0,62,0.00,,,0.00,VWS V14.01,2013-11-24 02:53:00,
2013-11-23 18:58:00,47.3,35.4,30.13,ENE,63,0.0,1.0,63,0.00,,,0.00,VWS V14.01,2013-11-24 02:58:00,
2013-11-23 19:03:00,47.0,35.1,30.14,ENE,63,0.0,0.0,63,0.00,,,0.00,VWS V14.01,2013-11-24 03:03:00,
2013-11-23 19:08:00,46.8,35.3,30.14,NNE,20,1.0,2.0,64,0.00,,,0.00,VWS V14.01,2013-11-24 03:08:00,
2013-11-23 19:13:00,46.7,35.2,30.14,NNE,30,0.0,2.0,64,0.00,,,0.00,VWS V14.01,2013-11-24 03:13:00,
2013-11-23 19:18:00,46.4,35.7,30.14,NNE,30,0.0,2.0,66,0.00,,,0.00,VWS V14.01,2013-11-24 03:18:00,
2013-11-23 19:23:00,46.3,36.0,30.14,NNE,30,0.0,2.0,67,0.00,,,0.00,VWS V14.01,2013-11-24 03:23:00,
2013-11-23 19:28:00,46.0,36.4,30.14,NNE,30,0.0,2.0,69,0.00,,,0.00,VWS V14.01,2013-11-24 03:28:00,
2013-11-23 19:33:00,45.7,36.5,30.14,NNE,30,0.0,0.0,70,0.00,,,0.00,VWS V14.01,2013-11-24 03:33:00,
2013-11-23 19:38:00,45.6,36.4,30.14,NNE,32,0.0,1.0,70,0.00,,,0.00,VWS V14.01,2013-11-24 03:38:00,
2013-11-23 19:43:00,45.3,36.1,30.14,NNE,32,0.0,1.0,70,0.00,,,0.00,VWS V14.01,2013-11-24 03:43:00,
2013-11-23 19:48:00,44.9,35.7,30.15,North,8,0.0,1.0,70,0.00,,,0.00,VWS V14.01,2013-11-24 03:48:00,
2013-11-23 19:53:00,44.7,35.9,30.15,North,9,0.0,1.0,71,0.00,,,0.00,VWS V14.01,2013-11-24 03:53:00,
2013-11-23 19:58:00,44.6,35.8,30.15,NNE,12,0.0,1.0,71,0.00,,,0.00,VWS V14.01,2013-11-24 03:58:00,
2013-11-23 20:03:00,44.5,36.0,30.15,NNE,12,0.0,1.0,72,0.00,,,0.00,VWS V14.01,2013-11-24 04:03:00,
2013-11-23 20:08:00,44.3,36.2,30.15,NNE,12,0.0,0.0,73,0.00,,,0.00,VWS V14.01,2013-11-24 04:08:00,
2013-11-23 20:13:00,44.1,36.4,30.15,NNE,12,0.0,0.0,74,0.00,,,0.00,VWS V14.01,2013-11-24 04:13:00,
2013-11-23 20:18:00,43.8,36.4,30.15,NNE,12,0.0,0.0,75,0.00,,,0.00,VWS V14.01,2013-11-24 04:18:00,
2013-11-23 20:23:00,43.8,37.1,30.15,NNE,12,0.0,0.0,77,0.00,,,0.00,VWS V14.01,2013-11-24 04:23:00,
2013-11-23 20:28:00,43.9,37.2,30.15,NNE,23,0.0,1.0,77,0.00,,,0.00,VWS V14.01,2013-11-24 04:28:00,
2013-11-23 20:33:00,44.1,37.4,30.16,ENE,77,0.0,2.0,77,0.00,,,0.00,VWS V14.01,2013-11-24 04:33:00,
2013-11-23 20:38:00,44.3,37.6,30.16,ENE,77,0.0,1.0,77,0.00,,,0.00,VWS V14.01,2013-11-24 04:38:00,
2013-11-23 20:43:00,44.3,37.6,30.16,NNE,15,0.0,2.0,77,0.00,,,0.00,VWS V14.01,2013-11-24 04:43:00,
2013-11-23 20:48:00,44.5,37.8,30.16,NNE,14,0.0,2.0,77,0.00,,,0.00,VWS V14.01,2013-11-24 04:48:00,
2013-11-23 20:53:00,44.3,37.9,30.16,NNE,13,0.0,2.0,78,0.00,,,0.00,VWS V14.01,2013-11-24 04:53:00,
2013-11-23 20:58:00,44.0,37.6,30.16,NNE,13,0.0,2.0,78,0.00,,,0.00,VWS V14.01,2013-11-24 04:58:00,
2013-11-23 21:01:00,43.9,37.8,30.16,NNE,13,0.0,2.0,79,0.00,,,0.00,VWS V14.01,2013-11-24 05:01:00,
2013-11-23 21:06:00,43.7,37.6,30.16,NNE,13,0.0,0.0,79,0.00,,,0.00,VWS V14.01,2013-11-24 05:06:00,
2013-11-23 21:11:00,43.6,37.5,30.16,NNE,13,0.0,0.0,79,0.00,,,0.00,VWS V14.01,2013-11-24 05:11:00,
2013-11-23 21:16:00,43.5,37.4,30.16,NNE,13,0.0,0.0,79,0.00,,,0.00,VWS V14.01,2013-11-24 05:16:00,
2013-11-23 21:21:00,43.3,37.9,30.17,NNE,13,0.0,0.0,81,0.00,,,0.00,VWS V14.01,2013-11-24 05:21:00,
2013-11-23 21:26:00,43.2,37.8,30.17,NNE,13,0.0,0.0,81,0.00,,,0.00,VWS V14.01,2013-11-24 05:26:00,
2013-11-23 21:31:00,43.1,37.4,30.17,NNE,13,0.0,0.0,80,0.00,,,0.00,VWS V14.01,2013-11-24 05:31:00,
2013-11-23 21:36:00,43.1,37.7,30.17,NNE,13,0.0,0.0,81,0.00,,,0.00,VWS V14.01,2013-11-24 05:36:00,
2013-11-23 21:41:00,42.9,37.5,30.17,NNE,22,0.0,0.0,81,0.00,,,0.00,VWS V14.01,2013-11-24 05:41:00,
2013-11-23 21:46:00,43.0,37.6,30.17,NE,48,0.0,1.0,81,0.00,,,0.00,VWS V14.01,2013-11-24 05:46:00,
2013-11-23 21:51:00,43.0,37.3,30.17,NE,49,0.0,1.0,80,0.00,,,0.00,VWS V14.01,2013-11-24 05:51:00,
2013-11-23 21:56:00,42.9,37.5,30.17,NE,49,0.0,1.0,81,0.00,,,0.00,VWS V14.01,2013-11-24 05:56:00,
2013-11-23 21:57:00,42.9,37.5,30.17,NE,50,0.0,1.0,81,0.00,,,0.00,VWS V14.01,2013-11-24 05:57:00,
2013-11-23 22:02:00,42.9,37.5,30.17,ESE,115,1.0,2.0,81,0.00,,,0.00,VWS V14.01,2013-11-24 06:02:00,
2013-11-23 22:07:00,42.8,37.4,30.17,ESE,115,0.0,1.0,81,0.00,,,0.00,VWS V14.01,2013-11-24 06:07:00,
2013-11-23 22:12:00,42.6,37.2,30.18,ESE,115,0.0,1.0,81,0.00,,,0.00,VWS V14.01,2013-11-24 06:12:00,
2013-11-23 22:17:00,42.4,37.3,30.18,ESE,115,0.0,1.0,82,0.00,,,0.00,VWS V14.01,2013-11-24 06:17:00,
2013-11-23 22:22:00,42.4,37.3,30.18,ESE,115,0.0,1.0,82,0.00,,,0.00,VWS V14.01,2013-11-24 06:22:00,
2013-11-23 22:27:00,42.3,37.2,30.18,ESE,115,0.0,1.0,82,0.00,,,0.00,VWS V14.01,2013-11-24 06:27:00,
2013-11-23 22:32:00,42.1,37.0,30.18,ESE,116,0.0,1.0,82,0.00,,,0.00,VWS V14.01,2013-11-24 06:32:00,
2013-11-23 22:37:00,42.0,37.2,30.18,ESE,115,0.0,0.0,83,0.00,,,0.00,VWS V14.01,2013-11-24 06:37:00,
2013-11-23 22:42:00,41.9,37.1,30.18,ESE,115,0.0,0.0,83,0.00,,,0.00,VWS V14.01,2013-11-24 06:42:00,
2013-11-23 22:47:00,41.7,36.9,30.18,ESE,115,0.0,0.0,83,0.00,,,0.00,VWS V14.01,2013-11-24 06:47:00,
2013-11-23 22:52:00,41.5,37.0,30.18,ESE,115,0.0,0.0,84,0.00,,,0.00,VWS V14.01,2013-11-24 06:52:00,
2013-11-23 22:57:00,41.5,37.0,30.18,ESE,115,0.0,0.0,84,0.00,,,0.00,VWS V14.01,2013-11-24 06:57:00,
2013-11-23 23:02:00,41.4,36.6,30.18,ESE,115,0.0,0.0,83,0.00,,,0.00,VWS V14.01,2013-11-24 07:02:00,
2013-11-23 23:07:00,41.6,36.8,30.18,ESE,113,0.0,1.0,83,0.00,,,0.00,VWS V14.01,2013-11-24 07:07:00,
2013-11-23 23:12:00,41.8,37.0,30.18,ESE,113,0.0,1.0,83,0.00,,,0.00,VWS V14.01,2013-11-24 07:12:00,
2013-11-23 23:17:00,41.7,36.6,30.18,ESE,113,0.0,1.0,82,0.00,,,0.00,VWS V14.01,2013-11-24 07:17:00,
2013-11-23 23:22:00,42.0,36.9,30.18,ESE,113,0.0,1.0,82,0.00,,,0.00,VWS V14.01,2013-11-24 07:22:00,
2013-11-23 23:27:00,42.2,36.8,30.19,ESE,113,0.0,1.0,81,0.00,,,0.00,VWS V14.01,2013-11-24 07:27:00,
2013-11-23 23:32:00,42.2,36.8,30.19,ESE,113,0.0,1.0,81,0.00,,,0.00,VWS V14.01,2013-11-24 07:32:00,
2013-11-23 23:37:00,42.2,36.8,30.19,ESE,113,0.0,0.0,81,0.00,,,0.00,VWS V14.01,2013-11-24 07:37:00,
2013-11-23 23:42:00,42.1,36.7,30.19,ESE,113,0.0,0.0,81,0.00,,,0.00,VWS V14.01,2013-11-24 07:42:00,
2013-11-23 23:47:00,41.8,36.4,30.19,ESE,113,0.0,0.0,81,0.00,,,0.00,VWS V14.01,2013-11-24 07:47:00,
2013-11-23 23:52:00,41.6,36.5,30.19,ESE,113,0.0,0.0,82,0.00,,,0.00,VWS V14.01,2013-11-24 07:52:00,
2013-11-23 23:57:00,41.5,36.4,30.19,ESE,113,0.0,0.0,82,0.00,,,0.00,VWS V14.01,2013-11-24 07:57:00,